TimePDT,TemperatureF,Dew PointF,Humidity,Sea Level PressureIn,VisibilityMPH,Wind Direction,Wind SpeedMPH,Gust SpeedMPH,PrecipitationIn,Events,Conditions,WindDirDegrees,DateUTC
12:53 AM,46.0,37.9,73,29.94,10.0,Calm,Calm,-,0.00,,Overcast,0,2014-04-02 07:53:00
1:53 AM,46.0,39.0,76,29.94,10.0,Calm,Calm,-,0.00,,Overcast,0,2014-04-02 08:53:00
2:53 AM,45.0,37.9,76,29.95,10.0,South,3.5,-,0.00,,Overcast,190,2014-04-02 09:53:00
3:53 AM,45.0,37.9,76,29.95,10.0,Calm,Calm,-,N/A,,Overcast,0,2014-04-02 10:53:00
5:53 AM,41.0,37.0,86,29.98,10.0,Calm,Calm,-,N/A,,Scattered Clouds,0,2014-04-02 12:53:00
6:53 AM,39.0,35.1,86,30.01,10.0,North,3.5,-,N/A,,Scattered Clouds,10,2014-04-02 13:53:00
7:53 AM,37.9,35.1,89,30.04,10.0,Calm,Calm,-,N/A,,Scattered Clouds,0,2014-04-02 14:53:00
8:53 AM,41.0,36.0,82,30.04,10.0,Calm,Calm,-,N/A,,Mostly Cloudy,0,2014-04-02 15:53:00
9:53 AM,46.9,37.9,71,30.06,10.0,Variable,3.5,-,N/A,,Scattered Clouds,0,2014-04-02 16:53:00
10:53 AM,50.0,37.0,61,30.07,10.0,Variable,3.5,-,N/A,,Scattered Clouds,0,2014-04-02 17:53:00
11:53 AM,52.0,37.0,57,30.06,10.0,SSE,4.6,-,N/A,,Scattered Clouds,160,2014-04-02 18:53:00
12:53 PM,55.0,36.0,49,30.05,10.0,Calm,Calm,-,N/A,,Clear,0,2014-04-02 19:53:00
1:53 PM,57.9,36.0,44,30.04,10.0,WNW,6.9,-,N/A,,Scattered Clouds,300,2014-04-02 20:53:00
2:53 PM,59.0,37.4,45,30.03,10.0,NNE,4.6,-,N/A,,Clear,30,2014-04-02 21:53:00
3:53 PM,61.0,35.1,38,30.01,10.0,NNW,3.5,-,N/A,,Scattered Clouds,330,2014-04-02 22:53:00
4:53 PM,62.1,35.1,37,30.00,10.0,Variable,4.6,-,N/A,,Clear,0,2014-04-02 23:53:00
5:53 PM,63.0,30.9,30,29.99,10.0,WNW,8.1,-,N/A,,Clear,290,2014-04-03 00:53:00
6:53 PM,60.1,34.0,38,29.99,10.0,NNE,4.6,-,N/A,,Clear,30,2014-04-03 01:53:00
7:53 PM,57.9,34.0,41,29.99,10.0,West,3.5,-,N/A,,Clear,280,2014-04-03 02:53:00
8:53 PM,53.1,37.9,57,30.01,10.0,Calm,Calm,-,N/A,,Clear,0,2014-04-03 03:53:00
9:53 PM,51.1,37.9,61,30.03,10.0,SE,3.5,-,N/A,,Clear,130,2014-04-03 04:53:00
10:53 PM,50.0,37.9,63,30.03,10.0,Calm,Calm,-,N/A,,Overcast,0,2014-04-03 05:53:00
11:53 PM,50.0,37.9,63,30.03,10.0,South,3.5,-,N/A,,Overcast,190,2014-04-03 06:53:00